Header for Extended Forecast Station List Page

Search by: ID | Name | Date | Parm | Value | Avg | % Avg
Sort by: ID | Name | Date | Parm | Value | Avg | % Avg

Enter search or view all records.

Click on id for station plot
#IDNameDateParmValueAvg% Avg
0MILI1SNAKE-AT MILNER06-27-2022DISCHARGE (KAF)0380
1RIDI1WILLOW CREEK-RIRIE DAM06-27-2022INFLOW (KAF)2638
2BERO3MALHEUR-AGENCY VALLEY DAM06-27-2022INFLOW (KAF)71261
3CHEI1FALL RIVER-NEAR CHESTER06-27-2022DISCHARGE (KAF)6310162
4PIHI1PORTNEUF-AT POCATELLO06-27-2022DISCHARGE (KAF)131869
5UMAO3UMATILLA-NEAR UMATILLA06-27-2022DISCHARGE (KAF)182769
6OWYO3OWYHEE-OWYHEE DAM06-27-2022INFLOW (KAF)486278
7SNAI1SNAKE-AT BLACKFOOT06-27-2022DISCHARGE (KAF)53267279
8BFTI1SNAKE-NEAR BLACKFOOT06-27-2022DISCHARGE (KAF)52064481
9SHYI1SNAKE-NEAR SHELLEY06-27-2022DISCHARGE (KAF)1027122384
10ANTI1HENRYS FORK-AT ST. ANTHONY06-27-2022DISCHARGE (KAF)25630385
11NACW1NACHES-NEAR NACHES06-27-2022DISCHARGE (KAF)19522487
12IPDI1HENRYS FORK-ISLAND PARK DAM06-27-2022INFLOW (KAF)11813488
13SIFI1SNAKE-AB EAGLE ROCK NR IDAHO FALLS06-27-2022DISCHARGE (KAF)1186133589
14ARAI1SF BOISE-ANDERSON RANCH DAM06-27-2022INFLOW (KAF)758589
15HEII1SNAKE-NEAR HEISE06-27-2022DISCHARGE (KAF)1955218290
16AFRI1SNAKE-AMERICAN FALLS RESERVOIR06-27-2022INFLOW (KAF)1074118291
17EASW1YAKIMA-AT EASTON06-27-2022DISCHARGE (KAF)697592
18DEDI1DEADWOOD-NEAR LOWMAN06-27-2022INFLOW (KAF)232692
19LWRI1LITTLE WOOD-LITTLE WOOD DAM06-27-2022INFLOW (KAF)131493
20JKSW4SNAKE-NEAR JACKSON06-27-2022DISCHARGE (KAF)94398895
21PLDI1SF SNAKE-PALISADES DAM06-27-2022INFLOW (KAF)1425149795
22SWAI1SNAKE-BELOW SWAN FALLS06-27-2022DISCHARGE (KAF)1564164895
23ALPW4SNAKE-NEAR ALPINE06-27-2022DISCHARGE (KAF)1110115996
24DRMM8CLARK FORK-NR DRUMMOND06-27-2022DISCHARGE (KAF)10510897
25HOTI1BRUNEAU-NEAR HOT SPRINGS06-27-2022DISCHARGE (KAF)242597
26REXI1HENRYS FORK-AT REXBURG06-27-2022DISCHARGE (KAF)29430298
27MODO3DESCHUTES-AT MOODY NR BIGGS06-27-2022DISCHARGE (KAF)1069108998
28MAGI1BIG WOOD-MAGIC DAM06-27-2022INFLOW (KAF)3232101
29TEAI1TETON-NEAR ST. ANTHONY06-27-2022DISCHARGE (KAF)186182102
30WEII1SNAKE-AT WEISER06-27-2022DISCHARGE (KAF)25102452102
31UMTW1YAKIMA-AT UMTANUM06-27-2022DISCHARGE (KAF)658642103
32BIGI1BOISE-AT GLENWOOD BRIDGE06-27-2022DISCHARGE (KAF)195190103
33BRNI1SNAKE-BROWNLEE DAM06-27-2022INFLOW (KAF)26342559103
34RCCM8ROCK CREEK-NEAR CLINTON06-27-2022DISCHARGE (KAF)9288105
35LUCI1BOISE-LUCKY PEAK DAM06-27-2022INFLOW (KAF)570543105
36JLKW4SNAKE-JACKSON LAKE AT DAM06-27-2022INFLOW (KAF)217206106
37WSRI1WEISER-NEAR WEISER06-27-2022DISCHARGE (KAF)5552107
38ANAW1SNAKE-NEAR ANATONE06-27-2022DISCHARGE (KAF)52234824108
39GIBO3UMATILLA-NEAR GIBBON06-27-2022DISCHARGE (KAF)1312108
40SPOW1SPOKANE-AT SPOKANE06-27-2022DISCHARGE (KAF)472422112
41LGDW1SNAKE-LOWER GRANITE DAM06-27-2022INFLOW (KAF)81697293112
42LGSW1SNAKE-LITTLE GOOSE DAM06-27-2022INFLOW (KAF)81457284112
43LMNW1SNAKE-LOWER MONUMENTAL DAM06-27-2022INFLOW (KAF)81847279112
44IHDW1SNAKE-ICE HARBOR DAM06-27-2022INFLOW (KAF)81907292112
45HODO3HOOD-NEAR TUCKER BRIDGE06-27-2022DISCHARGE (KAF)10090112
46PARW1YAKIMA-NEAR PARKER06-27-2022DISCHARGE (KAF)155135114
47PARI1BOISE-NEAR PARMA06-27-2022DISCHARGE (KAF)220193114
48CSDI1NF PAYETTE-CASCADE DAM06-27-2022INFLOW (KAF)7666114
49LEOI1KOOTENAI-AT LEONIA06-27-2022DISCHARGE (KAF)27862415115
50HALI1BIG WOOD-AT HAILEY06-27-2022DISCHARGE (KAF)7464116
51SRGM8CLARK FORK-AT ST REGIS06-27-2022DISCHARGE (KAF)1159989117
52LLKW1SPOKANE-AT LONGLAKE06-27-2022INFLOW (KAF)667572117
53UNDW1WHITE SALMON-NEAR UNDERWOOD06-27-2022DISCHARGE (KAF)191163117
54DLGM8CLARK FORK-AT DEER LODGE06-27-2022DISCHARGE (KAF)4337118
55BELM8CLARK FORK-BELOW MISSOULA06-27-2022DISCHARGE (KAF)900760118
56KIOW1YAKIMA-AT KIONA06-27-2022DISCHARGE (KAF)459389118
57PITW1KLICKITAT-NEAR PITT06-27-2022DISCHARGE (KAF)238201118
58ABOM8CLARK FORK-ABOVE MISSOULA06-27-2022DISCHARGE (KAF)520438119
59WHBI1SALMON-AT WHITEBIRD06-27-2022DISCHARGE (KAF)18451510122
60CIBW1COLUMBIA-AT INTL BOUNDARY06-27-2022DISCHARGE (KAF)2889123159125
61BITM8BITTERROOT-NEAR MISSOULA06-27-2022DISCHARGE (KAF)379302126
62EMMI1PAYETTE-NEAR EMMETT06-27-2022DISCHARGE (KAF)448352127
63MCDW1COLUMBIA-MCNARY DAM06-27-2022INFLOW (KAF)4117332130128
64BONO3COLUMBIA-BONNEVILLE DAM06-27-2022INFLOW (KAF)4281133355128
65SPDI1CLEARWATER-AT SPALDING06-27-2022DISCHARGE (KAF)29462289129
66CHJW1COLUMBIA-CHIEF JOSEPH DAM06-27-2022INFLOW (KAF)2893522195130
67CLFW1NACHES-NEAR CLIFFDEL06-27-2022DISCHARGE (KAF)133102130
68TDAO3COLUMBIA-THE DALLES DAM06-27-2022INFLOW (KAF)4221432357130
69WELW1COLUMBIA-WELLS DAM06-27-2022INFLOW (KAF)3019122987131
70RRHW1COLUMBIA-ROCKY REACH DAM06-27-2022INFLOW (KAF)3101823643131
71JDAO3COLUMBIA-JOHN DAY DAM06-27-2022INFLOW (KAF)4171831903131
72RILW1TIETON-RIMROCK LAKE NEAR RIMROCK06-27-2022INFLOW (KAF)10680133
73WANW1COLUMBIA-WANAPUM DAM06-27-2022INFLOW (KAF)3214523956134
74PRWW1COLUMBIA-PRIEST RAPIDS DAM06-27-2022INFLOW (KAF)3216624068134
75GCDW1COLUMBIA-GRAND COULEE DAM06-27-2022INFLOW (KAF)3008822064136
76NOXM8CLARK FORK-NOXON RAPIDS DAM06-27-2022INFLOW (KAF)45183300137
77CABI1CLARK FORK-CABINET GORGE DAM06-27-2022INFLOW (KAF)49793635137
78BUDW1BUMPING-BUMPING LAKE DAM06-27-2022INFLOW (KAF)3726141
79HWRI1BIG LOST-AT HOWELL RANCH NEAR CHILLY06-27-2022DISCHARGE (KAF)7452141
80BONM8BLACKFOOT-NEAR BONNER06-27-2022DISCHARGE (KAF)301212142
81ALFW1PEND OREILLE-ALBENI FALLS DAM06-27-2022INFLOW (KAF)51873658142
82KERM8FLATHEAD-SELI’Š KSANKA QLISPE’ DAM06-27-2022INFLOW (KAF)27131880144
83LYDM8KOOTENAI-LIBBY DAM06-27-2022INFLOW (KAF)33672312146
84MACI1BIG LOST-MACKAY RESERVOIR NEAR MACKAY06-27-2022INFLOW (KAF)8558146
85ORFI1CLEARWATER-AT OROFINO06-27-2022DISCHARGE (KAF)1008692146
86KEDW1YAKIMA-KEECHELUS LAKE06-27-2022INFLOW (KAF)4027147
87PRTI1PRIEST-NEAR PRIEST RIVER06-27-2022DISCHARGE (KAF)255172148
88CFMM8FLATHEAD-AT COLUMBIA FALLS06-27-2022DISCHARGE (KAF)23621584149
89STRM8ST. REGIS-NEAR ST. REGIS06-27-2022DISCHARGE (KAF)5939149
90DWRI1NF CLEARWATER-DWORSHAK DAM06-27-2022INFLOW (KAF)592390152
91HHWM8SF FLATHEAD-HUNGRY HORSE DAM06-27-2022INFLOW (KAF)579367158
92LAUW1KETTLE-AT LAURIER06-27-2022DISCHARGE (KAF)395247160
93COEI1COEUR D ALENE-COEUR D ALENE LAKE06-27-2022INFLOW (KAF)410253162
94WRMO3MALHEUR-WARM SPRINGS DAM06-27-2022INFLOW (KAF)85163
95TRYO3GRANDE RONDE-TROY06-27-2022DISCHARGE (KAF)399245163
96ARDW1ENTIAT-NEAR ARDENVOIR06-27-2022DISCHARGE (KAF)9155164
97KADW1KACHESS-KACHESS DAM06-27-2022INFLOW (KAF)3822168
98FCFM8NF FLATHEAD-NEAR COLUMBIA FALLS06-27-2022DISCHARGE (KAF)741430172
99SERO3JOHN DAY-AT SERVICE CK06-27-2022DISCHARGE (KAF)10461172
100PESW1WENATCHEE-AT PESHASTIN06-27-2022DISCHARGE (KAF)688378182
101WGCM8MF FLATHEAD-NEAR WEST GLACIER06-27-2022DISCHARGE (KAF)716380188
102TNAW1TEANAWAY-BELOW FORKS06-27-2022DISCHARGE (KAF)179188
103PATW1METHOW-NEAR PATEROS06-27-2022DISCHARGE (KAF)375199189
104SATI1ST MARIES-NEAR SANTA06-27-2022DISCHARGE (KAF)3317192
105TONW1OKANOGAN-NEAR TONASKET06-27-2022DISCHARGE (KAF)822415198
106CLUW1CLE ELUM-CLE ELUM LAKE06-27-2022INFLOW (KAF)20197207
107CHDW1CHELAN-LAKE CHELAN DAM06-27-2022INFLOW (KAF)811344236
108MONO3NF JOHN DAY-AT MONUMENT06-27-2022DISCHARGE (KAF)9639244
109PDTO3UMATILLA-AT PENDLETON06-27-2022DISCHARGE (KAF)3913287
110TCHW1WALLA WALLA-NEAR TOUCHET06-27-2022DISCHARGE (KAF)469521
111MYKO3MCKAY CREEK-NEAR PILOT ROCK06-27-2022DISCHARGE (KAF)811115
112BFEI1KOOTENAI-AT BONNERS FERRY06-27-2022STAGE (FT)MMM
113HOPI1PEND OREILLE-PEND OREILLE LAKE NR HOPE06-27-2022LAKE ELEVATION (FT)MMM
114SJMI1ST JOE-AT ST MARIES06-27-2022STAGE (FT)MMM
115BULO3BULLY CREEK-BULLY CREEK DAM06-27-2022INFLOW (KAF)MMM